Guadalupe Mtns National Park, TX

11:04 AM MDT on April 27, 2015 (GMT -0600)
APRSWXNET | | Change Station
CLOSE
Current Station
Personal Weather Station
Location: Salt Flat, TX
Elevation: 3694 ft
Nearby Weather Stations

Elev 3694 ft 31.73 °N, 104.93 °W | Updated 31 minutes ago

Clear
Clear
62 °F
Feels Like 62 °F
N
1
Wind Variable Wind from NW
Gusts 6.0 mph

Today
High -- | Low -- °F
--% Chance of Precip.
Yesterday
High -- | Low -- °F
Precip. -- in
6:18 AM 7:37 PM
Waxing Gibbous, 66% visible
Pressure 29.86 in
Visibility 10.0 miles
Clouds Overcast 5500 ft
Dew Point 43 °F
Humidity 49%
Rainfall in
Snow Depth Not available.
UV 3 out of 12
Pollen 8.60 out of 12
Air Quality Not available.
Flu Activity Local Activity
METAR KGDP 271651Z AUTO VRB03KT 10SM OVC055 12/03 A2997 RMK AO2 SLP111 T01220028

More Conditions Fewer Conditions

Pressure 29.86 in
Visibility 10.0 miles
Clouds Overcast 5500 ft
Dew Point 43 °F
Humidity 49%
Rainfall in
Snow Depth Not available.
UV 3 out of 12
Pollen 8.60 out of 12
Air Quality Not available.
Flu Activity Local Activity
METAR KGDP 271651Z AUTO VRB03KT 10SM OVC055 12/03 A2997 RMK AO2 SLP111 T01220028

More Conditions Fewer Conditions

10-Day Weather Forecast

Almanac

Astronomy

Apr. 27, 2015 Rise Set
Actual Time
Civil Twilight
Nautical Twilight
Astronomical Twilight
Moon
Length of Visible Light
Length of Day
Tomorrow will be .
, % of the Moon is Illuminated

Today's Extremes

State Highs State Lows

Community

WunderPhotos

Upload Photos

1,817,341 photos uploaded!

WunderBlogs® & News

Nearby

Air Quality

  Air Quality AQ Index Pollutant
Not available.

Snow Depth

Station Depth Elevation

Earthquake Activity

City Distance Mag. Time & Date
Minimum magnitude displayed is 2.5.

Coastal Water Temperatures

Place Temperature

Stations

Nearby Weather Stations

Station Location Temp. Windchill Dew Point Humidity Wind Precip. Elev Updated Type